Cape Canaveral, FL

1:45 AM EST on February 20, 2017 (GMT -0500)
Cape Canaveral Air Station Skid Strip

Weather History for KXMR - October, 2012

Change the Weather History Date:

Sunday, October 14, 2012

  Actual Average (KCOF) Record (KCOF)
Temperature  
Mean Temperature 80 °F -  
Max Temperature 85 °F 80 °F 89 °F (2003)
Min Temperature 77 °F 70 °F 46 °F (1998)
Cooling Degree Days 16    
Growing Degree Days 30 (Base 50)    
Moisture  
Dew Point 71 °F    
Average Humidity 72    
Maximum Humidity 83    
Minimum Humidity 62    
Precipitation  
Precipitation 0.00 in - - ()
Sea Level Pressure  
Sea Level Pressure 30.06 in    
Wind  
Wind Speed 10 mph (East)    
Max Wind Speed 14 mph    
Max Gust Speed 21 mph    
Visibility 10 miles    
Events      
Averages and records for this station are not official NWS values.
T = Trace of Precipitation, MM = Missing Value Source: NWS Daily Summary

Daily Weather History Graph

Daily Weather History Graph

Search for Another Location

Airport or City:

Trip Planner

Search our weather history database for the weather conditions in past years. The results will help you decide how hot, cold, wet, or windy it might be!

Date:

Astronomy

Oct. 14, 2012 Rise Set
Actual Time 7:22 AM EDT 6:53 PM EDT
Civil Twilight 6:58 AM EDT 7:16 PM EDT
Nautical Twilight 6:31 AM EDT 7:44 PM EDT
Astronomical Twilight 6:04 AM EDT 8:11 PM EDT
Moon 6:21 AM EDT (10/14) 6:13 PM EDT (10/14)
Length of Visible Light 12h 17m
Length of Day
11h 30m
Waning Crescent, 1% of the Moon is Illuminated
Oct 14
Waning Crescent
Oct 15
New
Oct 21
First Quarter
Oct 29
Full
Nov 6
Last Quarter

Hourly Weather History & Observations

Time (EDT) Temp. Heat Index Dew Point Humidity Pressure Visibility Wind Dir Wind Speed Gust Speed Precip Events Conditions
12:55 AM 78.6 °F - 67.6 °F 69% 30.12 in 10.0 mi East 11.5 mph 19.6 mph N/A   Clear
1:55 AM 78.8 °F - 68.0 °F 69% 30.11 in 10.0 mi East 12.7 mph 19.6 mph N/A   Clear
2:55 AM 78.6 °F - 67.6 °F 69% 30.09 in 10.0 mi East 11.5 mph - N/A   Scattered Clouds
3:55 AM 78.4 °F - 68.4 °F 71% 30.08 in 10.0 mi East 13.8 mph 20.7 mph N/A   Mostly Cloudy
4:55 AM 79.3 °F - 65.1 °F 62% 30.07 in 10.0 mi East 12.7 mph 18.4 mph N/A   Mostly Cloudy
5:55 AM 78.4 °F - 65.7 °F 65% 30.07 in 10.0 mi East 10.4 mph - N/A   Clear
6:55 AM 77.9 °F - 66.7 °F 68% 30.08 in 10.0 mi East 9.2 mph - N/A   Partly Cloudy
7:55 AM 78.1 °F - 68.0 °F 71% 30.09 in 10.0 mi East 8.1 mph - N/A   Partly Cloudy
8:55 AM 80.6 °F 83.6 °F 69.1 °F 68% 30.10 in 10.0 mi East 10.4 mph - N/A   Partly Cloudy
9:55 AM 82.0 °F 85.9 °F 70.0 °F 67% 30.10 in 10.0 mi East 11.5 mph 20.7 mph N/A   Clear
10:55 AM 83.1 °F 88.1 °F 71.8 °F 68% 30.11 in 10.0 mi East 13.8 mph 19.6 mph N/A   Partly Cloudy
11:55 AM 84.6 °F 90.0 °F 71.4 °F 65% 30.11 in 10.0 mi ESE 12.7 mph 20.7 mph N/A   Partly Cloudy
12:55 PM 84.4 °F 89.4 °F 71.1 °F 64% 30.09 in 10.0 mi East 11.5 mph - N/A   Clear
1:55 PM 84.7 °F 89.7 °F 71.1 °F 63% 30.06 in 10.0 mi East 11.5 mph - N/A   Clear
2:55 PM 84.9 °F 90.4 °F 71.6 °F 64% 30.05 in 10.0 mi East 8.1 mph - N/A   Partly Cloudy
3:55 PM 84.0 °F 89.0 °F 71.2 °F 65% 30.04 in 10.0 mi East 9.2 mph - N/A   Clear
4:55 PM 83.8 °F 88.6 °F 71.1 °F 65% 30.04 in 10.0 mi NE 8.1 mph - N/A   Partly Cloudy
5:20 PM 82.4 °F 87.2 °F 71.6 °F 70% 30.04 in 10.0 mi ENE 8.1 mph - N/A   Mostly Cloudy
5:23 PM 82.4 °F 87.2 °F 71.6 °F 70% 30.03 in 10.0 mi ENE 9.2 mph - N/A   Overcast
5:26 PM 82.4 °F 87.2 °F 71.6 °F 70% 30.03 in 10.0 mi ENE 8.1 mph - N/A   Overcast
5:31 PM 82.4 °F 88.2 °F 73.4 °F 74% 30.03 in 10.0 mi East 6.9 mph - N/A   Mostly Cloudy
5:34 PM 82.4 °F 88.2 °F 73.4 °F 74% 30.03 in 10.0 mi ENE 6.9 mph - N/A   Mostly Cloudy
5:44 PM 82.4 °F 88.2 °F 73.4 °F 74% 30.03 in 10.0 mi ENE 8.1 mph - N/A   Mostly Cloudy
5:55 PM 80.1 °F 84.2 °F 73.0 °F 79% 30.03 in 10.0 mi NE 5.8 mph - N/A   Scattered Clouds
6:55 PM 79.0 °F - 72.5 °F 80% 30.03 in 10.0 mi East 9.2 mph - N/A   Partly Cloudy
7:55 PM 79.0 °F - 72.1 °F 79% 30.03 in 10.0 mi ENE 8.1 mph - N/A   Clear
8:55 PM 79.0 °F - 72.5 °F 80% 30.03 in 10.0 mi ENE 8.1 mph - N/A   Clear
9:55 PM 79.0 °F - 72.5 °F 80% 30.03 in 10.0 mi ENE 8.1 mph - N/A   Clear
10:55 PM 79.2 °F - 72.7 °F 80% 30.01 in 10.0 mi ENE 6.9 mph - N/A   Scattered Clouds
11:15 PM 78.8 °F - 73.4 °F 83% 30.01 in 10.0 mi ENE 6.9 mph - N/A   Mostly Cloudy
11:34 PM 78.8 °F - 73.4 °F 83% 30.01 in 10.0 mi East 11.5 mph - N/A   Mostly Cloudy
11:55 PM 79.2 °F - 72.1 °F 79% 30.01 in 10.0 mi East 8.1 mph - N/A   Clear